AO-07 1 07530U 74089B 16356.90651721 -.00000024 00000-0 12678-3 0 9999 2 07530 101.6043 323.2790 0011911 307.6773 75.3178 12.53624658926644 FO-29 1 24278U 96046B 16357.21442631 -.00000013 00000-0 20564-4 0 9999 2 24278 98.5835 257.8040 0351300 75.8217 288.1682 13.53072902 4945 RS-22 1 27939U 03042A 16357.81865758 .00000160 00000-0 37284-4 0 9994 2 27939 97.9126 142.5361 0014224 68.7505 68.8882 14.66502603707469 AO-73 1 39444U 13066AE 16357.09982950 .00000436 00000-0 60718-4 0 9993 2 39444 97.6568 42.5274 0059919 125.7334 234.9474 14.81288524165399 EO-79 1 40025U 14033R 16357.80063648 .00000421 00000-0 51605-4 0 9997 2 40025 97.9201 263.1034 0012967 158.8826 201.2928 14.88254168136251 XW-2A 1 40903U 15049E 16357.83191346 .00002945 00000-0 81413-4 0 9993 2 40903 97.4362 15.3370 0015453 172.8136 187.3333 15.37753595 70537 XW-2C 1 40906U 15049H 16357.81437915 .00001012 00000-0 58943-4 0 9995 2 40906 97.4539 0.8991 0017035 103.8796 256.4332 15.14143791 69540 LILACSAT-2 1 40908U 15049K 16357.50633285 .00000665 00000-0 41350-4 0 9998 2 40908 97.4608 0.3315 0017945 100.3491 259.9764 15.12879744 69457 UO-11 1 14781U 84021B 16357.17244816 .00000138 00000-0 23327-4 0 9994 2 14781 97.7243 43.1552 0009810 64.4612 295.7615 14.82840469764116 LO-19 1 20442U 90005G 16357.19274094 .00000013 00000-0 20699-4 0 9998 2 20442 98.5609 289.6509 0010995 315.0395 44.9898 14.32843189406274 AO-27 1 22825U 93061C 16356.88801701 .00000017 00000-0 24281-4 0 9991 2 22825 98.7871 314.5429 0009230 124.9779 235.2271 14.29980502212065 IO-26 1 22826U 93061D 16356.88972876 .00000024 00000-0 26639-4 0 9991 2 22826 98.7814 314.6474 0009853 116.7665 243.4526 14.30307597212230 GO-32 1 25397U 98043D 16357.43201531 -.00000001 00000-0 18272-4 0 9997 2 25397 98.5906 297.6835 0001990 122.9135 237.2235 14.23611267958646 NO-44 1 26931U 01043C 16357.56268011 -.00000027 00000-0 21549-4 0 9995 2 26931 67.0494 186.9037 0005932 280.7329 79.3104 14.30440382795089 SO-50 1 27607U 02058C 16356.94469315 .00000038 00000-0 26153-4 0 9991 2 27607 064.5561 307.1588 0045400 170.5028 189.6943 14.75262995752834 CO-55 1 27844U 03031E 16357.67741604 .00000076 00000-0 54011-4 0 9997 2 27844 98.6915 3.2475 0010478 134.0332 226.1711 14.22003247699236 CO-57 1 27848U 03031J 16357.48887752 .00000059 00000-0 46748-4 0 9994 2 27848 98.7010 3.2427 0010271 142.7249 217.4643 14.21622710699090 CO-65 1 32785U 08021C 16357.16335096 .00000351 00000-0 44064-4 0 9992 2 32785 97.5840 23.3692 0014067 40.1380 320.0873 14.87758191468573 PRISM 1 33493U 09002B 16357.86285372 .00001755 00000-0 16449-3 0 9991 2 33493 98.1905 226.6153 0014319 308.2186 51.7744 14.95371911429427 TISAT-1 1 36799U 10035E 16357.29007459 .00000662 00000-0 74340-4 0 9997 2 36799 98.0448 110.6938 0012556 182.1955 177.9209 14.90158988349438 ALMASAT-1 1 38078U 12006B 16356.95033019 .00016191 36071-5 20277-3 0 9997 2 38078 069.4448 246.2923 0346087 190.9041 168.4490 15.13146862257893 DUCHIFAT-1 1 40021U 14033M 16357.72009703 .00000608 00000-0 69486-4 0 9999 2 40021 97.9244 264.5843 0013491 156.7386 203.4444 14.89652306136320 NANOSATCBR1 1 40024U 14033Q 16357.44266462 .00000584 00000-0 67998-4 0 9997 2 40024 97.9212 263.4569 0012756 157.9206 202.2563 14.89012057136241 DTUSAT-2 1 40030U 14033W 16357.22345867 .00000470 00000-0 57451-4 0 9994 2 40030 97.9173 261.8127 0012476 154.8941 205.2884 14.87881186136140 ANTELSAT 1 40034U 14033AA 16357.74225937 .00000301 00000-0 52624-4 0 9990 2 40034 97.8810 240.8921 0059961 139.1469 221.4257 14.73569698134947 MET-2/21 1 22782U 93055A 16357.52310360 .00000042 00000-0 24834-4 0 9996 2 22782 82.5477 163.7829 0022004 203.7577 215.4929 13.83795188177269 NOAA-15 1 25338U 98030A 16357.58057932 .00000042 00000-0 36556-4 0 9997 2 25338 98.7843 2.1227 0010685 5.1072 355.0214 14.25769637967834 NOAA-18 1 28654U 05018A 16357.58192083 -.00000007 00000-0 21522-4 0 9991 2 28654 99.1935 9.3824 0014004 203.8046 156.2478 14.12319061597339 NOAA-19 1 33591U 09005A 16357.56276347 .00000098 00000-0 78281-4 0 9994 2 33591 99.0678 316.1251 0014810 51.2362 309.0130 14.12137826405723 HUBBLE 1 20580U 90037B 16356.90556713 .00000577 00000-0 24757-4 0 9999 2 20580 28.4701 98.8311 0002986 66.9414 240.0691 15.08625462263488 ISS 1 25544U 98067A 16357.67394391 .00001224 00000-0 25946-4 0 9993 2 25544 51.6423 198.2226 0006336 3.2452 108.8297 15.53918971 34301 CO-58 1 28895U 05043F 16356.94030314 .00000215 00000-0 50266-4 0 9990 2 28895 097.8440 161.6191 0016526 349.0598 011.0243 14.63316519594333 AAUSAT2 1 32788U 08021F 16357.65417276 .00001015 00000-0 10124-3 0 9997 2 32788 97.5815 34.1039 0012071 8.2917 351.8500 14.93605708469322 DO-64 1 32789U 08021G 16357.11514815 .00002685 00000-0 19735-3 0 9997 2 32789 97.5837 52.9263 0012546 348.6166 11.4774 15.04202559470243 CO-66 1 32791U 08021J 16356.76685668 .00000503 00000-0 57571-4 0 9993 2 32791 97.5834 26.7856 0014133 28.9224 331.2775 14.90036113468726 RS-30 1 32953U 08025A 16357.45800852 .00000034 00000-0 17343-3 0 9999 2 32953 82.5025 349.5634 0018157 314.2609 45.6980 12.43073963389467 JUGNU 1 37839U 11058B 16357.63287223 .00000321 00000-0 29470-4 0 9992 2 37839 19.9618 80.9895 0019163 37.4804 113.2615 14.12566363268700 SRMSAT 1 37841U 11058D 16357.57414942 .00000285 00000-0 11678-4 0 9998 2 37841 19.9714 119.3954 0011821 302.0801 152.7101 14.10561124268317 AO-71 1 37854U 11061E 16356.92842843 .00003969 00000-0 22127-3 0 9991 2 37854 101.7027 134.4061 0169957 239.2674 119.1701 15.03304020279844 HRBE 1 37855U 11061F 16357.14786677 .00003505 00000-0 19271-3 0 9991 2 37855 101.7130 132.6670 0183406 244.0334 114.1880 15.02236707280208 HORYU-2 1 38340U 12025D 16357.54023760 .00000348 00000-0 59530-4 0 9998 2 38340 98.3696 349.3210 0012579 129.9215 230.3101 14.75213987247242 RS-40 1 38735U 12041C 16357.55511252 -.00000000 00000-0 -72511-4 0 9994 2 38735 82.4769 74.3288 0017341 56.2691 304.0038 12.42574147199768 BEESAT-3 1 39134U 13015E 16357.59039236 .00002241 00000-0 12210-3 0 9997 2 39134 64.8701 76.1088 0021532 307.2672 52.6490 15.17030211202683 BEESAT-2 1 39136U 13015G 16357.50571279 .00001655 00000-0 99466-4 0 9995 2 39136 64.8709 84.7162 0022838 305.3011 54.5977 15.14479030202513 ZACUBE-1 1 39417U 13066B 16357.16946165 .00000371 00000-0 53432-4 0 9992 2 39417 97.6555 41.7629 0060681 128.0369 232.6343 14.80581579166589 TRITON-1 1 39427U 13066M 16357.10337185 .00000285 00000-0 53876-4 0 9999 2 39427 97.6500 18.2371 0114218 195.2416 164.5339 14.67344680165074 GOMX-1 1 39430U 13066Q 16357.89495203 .00000234 00000-0 51977-4 0 9999 2 39430 97.6631 4.4246 0150953 239.5226 119.0994 14.58755476164225 LO-74 1 39440U 13066AA 16357.70923795 .00000306 00000-0 49841-4 0 9999 2 39440 97.6508 32.8838 0081686 151.9324 208.6327 14.75331203166070 SPROUT 1 39770U 14029E 16357.81738514 .00000698 00000-0 86254-4 0 9993 2 39770 97.8711 93.0104 0009454 177.8288 182.2944 14.85880564139946 EO-80 1 40032U 14033Y 16357.79591290 .00000412 00000-0 51126-4 0 9990 2 40032 97.9180 262.3922 0012492 153.3601 206.8259 14.87815952136213 VELOX-1 1 40057U 14034E 16357.75721536 .00000598 00000-0 92559-4 0 9992 2 40057 98.1896 89.3817 0009903 261.3385 98.6713 14.76951644133710 DAURIA DX 1 1 40071U 14037C 16357.51979143 .00000703 00000-0 98213-4 0 9995 2 40071 98.3306 95.7093 0007267 259.2695 100.7691 14.80937595132827 UKUBE-1 1 40074U 14037F 16357.83621552 .00000117 00000-0 21367-4 0 9996 2 40074 98.3379 99.0132 0003474 254.8614 105.2188 14.83322266133030 HODOYOSHI-1 1 40299U 14070B 16357.53533748 .00000658 00000-0 31961-4 0 9999 2 40299 97.4169 76.8857 0013309 359.9160 56.3806 15.21875518118070 CHUBUSAT-1 1 40300U 14070C 16357.47943716 .00000823 00000-0 40701-4 0 9991 2 40300 97.4114 74.5204 0021056 5.1320 118.7119 15.20438457117930 QSAT-EOS 1 40301U 14070D 16357.50323610 .00002601 00000-0 11478-3 0 9995 2 40301 97.4051 74.1787 0028256 1.3458 124.7798 15.22317468117943 FIREBIRD FU3 1 40377U 15003B 16357.17770824 .00005314 00000-0 23367-3 0 9995 2 40377 99.1050 140.1620 0138873 228.1611 130.7693 15.14163671104214 FIREBIRD FU4 1 40378U 15003C 16357.83315124 .00005402 00000-0 23710-3 0 9997 2 40378 99.1052 140.9701 0139107 225.9113 133.0598 15.14186429104315 GRIFEX 1 40379U 15003D 16357.68184277 .00004622 00000-0 21380-3 0 9998 2 40379 99.1058 139.2876 0144050 231.9319 126.8840 15.12034155104208 NO-84 1 40654U 15025D 16357.33346162 .00007548 00000-0 15304-3 0 03198 2 40654 054.9983 304.9560 0193751 181.1671 178.8961 15.29918854052792 NO-83 1 40655U 15025E 16357.28970887 .00012394 00000-0 21526-3 0 03547 2 40655 054.9852 291.0042 0167878 188.3186 171.5103 15.37172223052968 DEORBITSAIL 1 40719U 15032E 16356.77255897 .00000560 00000-0 88925-4 0 9990 2 40719 097.9982 246.5603 0016778 358.5411 001.5746 14.75843918078153 NUDT-PHONESAT 1 40900U 15049B 16357.47857795 .00003470 00000-0 17192-3 0 9993 2 40900 97.4447 2.0491 0015958 118.7148 241.5692 15.18313402 69635 XW-2D 1 40907U 15049J 16357.80826093 .00001085 00000-0 62785-4 0 9993 2 40907 97.4507 0.7045 0016414 102.2855 258.0215 15.14221012 69545 XW-2F 1 40910U 15049M 16357.83625063 .00001575 00000-0 87808-4 0 9991 2 40910 97.4533 1.1516 0017346 100.7421 259.5765 15.14920885 69442 XW-2B 1 40911U 15049N 16357.74443019 .00001062 00000-0 61595-4 0 9997 2 40911 97.4553 0.9243 0016309 102.7410 257.5646 15.14192375 69437 DCBB 1 40912U 15049P 16357.41710637 .00001372 00000-0 72687-4 0 9993 2 40912 97.4511 2.0693 0017851 96.1768 38.2573 15.16948747 69481 TW-1C 1 40926U 15051B 16357.86226991 .00007886 00000-0 19987-3 0 9994 2 40926 97.2535 32.9181 0014833 88.8952 358.6662 15.39867742 69763 TW-1A 1 40928U 15051D 16357.54633317 .00003062 00000-0 93047-4 0 9997 2 40928 97.2493 30.4907 0014863 109.6777 48.5392 15.34714245 69597 IO-86 1 40931U 15052B 16357.20281453 .00000715 00000-0 10569-4 0 9995 2 40931 6.0017 54.6047 0013617 261.2546 98.6035 14.76503294 66760 GomX-3 1 40949U 98067HA 16292.18357804 .08527750 12374-4 77882-3 0 9992 2 40949 51.6055 106.7696 0006699 286.1344 73.8944 16.38002265 59645 LQSat 1 40958U 15057A 16357.82867305 -.00000209 00000-0 -24681-4 0 9993 2 40958 97.9964 70.0678 0016801 270.9764 88.9501 14.72931050 65151 AO-85 1 40967U 15058D 16357.38660779 .00000277 00000-0 50579-4 0 03487 2 40967 064.7785 035.1079 0180775 142.7857 218.5928 14.75277918051037 ATHENOXAT-1 1 41168U 15077C 16357.31877035 .00003159 00000-0 14483-3 0 9997 2 41168 14.9861 20.8426 0012731 84.1243 19.5285 15.10901117 56242 ChubuSat-2 1 41338U 16012B 16357.50470426 .00000485 00000-0 31615-4 0 9996 2 41338 31.0020 154.2620 0013795 110.6990 249.5125 14.99600752 46447 ChubuSat-3 1 41339U 16012C 16357.79048367 .00000492 00000-0 32014-4 0 9995 2 41339 31.0108 151.8803 0013495 119.4405 240.7581 14.99816901 46462 Horyu-4 1 41340U 16012D 16356.83700625 .00000639 00000-0 42900-4 0 9991 2 41340 031.0039 156.5375 0014083 117.0222 243.1852 15.00364963046353 OUFTI-1 1 41458U 16025C 16356.99124765 .00000931 00000-0 54671-4 0 9990 2 41458 098.2068 018.3443 0178158 160.5383 200.2764 15.02309688035973 e-st@r-II 1 41459U 16025D 16356.99743475 .00001196 00000-0 68768-4 0 9992 2 41459 98.2082 18.3275 0179011 160.8219 199.9863 15.02222453 35960 AAUSAT4 1 41460U 16025E 16357.41382780 .00003349 00000-0 18567-3 0 9993 2 41460 98.1993 18.8054 0171899 158.9460 201.8977 15.02792629 36039 MinXSS 1 41474U 98067HU 16356.82491368 .00024118 00000-0 18975-3 0 9991 2 41474 51.6415 189.8053 0003488 161.8029 198.3095 15.71339361 34289 CADRE 1 41475U 98067HV 16357.95484465 .00550190 14232-3 10971-2 0 9993 2 41475 51.6353 173.8885 0007212 235.9759 124.0511 15.99209964 34597 NODES 1 1 41477U 98067HX 16356.96713918 .00034704 00000-0 33372-3 0 9997 2 41477 51.6356 192.2046 0003173 139.9482 220.1748 15.66222194 34172 NODES 2 1 41478U 98067HY 16357.55095700 .00033127 00000-0 32023-3 0 9996 2 41478 51.6357 189.3511 0003127 142.6803 217.4411 15.66115222 34264 LO-87 1 41557U 16033B 16357.43983046 .00002163 00000-0 86014-4 0 9999 2 41557 97.4812 70.8975 0013015 270.8671 89.1076 15.26329650 31466 NuSat2 1 41558U 16033C 16357.78620844 .00002007 00000-0 80368-4 0 9995 2 41558 97.4838 71.2684 0012498 267.9942 91.9865 15.26199092 31517 Lapan A3 1 41603U 16040E 16357.86448728 .00000250 00000-0 15123-4 0 9997 2 41603 97.4867 55.7062 0012958 335.7708 126.5042 15.19224500 27884 Swayam 1 41607U 16040J 16357.41613241 .00002308 00000-0 11024-3 0 9997 2 41607 97.4859 55.2913 0013989 340.0076 20.0609 15.19976996 27746 Pratham 1 41783U 16059A 16357.13633758 .00000078 00000-0 24664-4 0 9993 2 41783 98.1934 54.1081 0033522 358.0293 2.0771 14.62790729 12718 OBJECT B 1 41784U 16059B 16357.38860496 .00000146 00000-0 37622-4 0 9996 2 41784 98.1934 54.4081 0031881 357.1229 2.9784 14.63157402 12727 OBJECT C 1 41785U 16059C 16357.86279094 .00000105 00000-0 29826-4 0 9990 2 41785 98.1918 54.8861 0031266 355.2589 4.8282 14.63217185 12791 OBJECT D 1 41786U 16059D 16357.87555211 .00000319 00000-0 66754-4 0 9998 2 41786 98.2193 55.6081 0001485 104.2268 255.9083 14.66316200 12820 OBJECT E 1 41787U 16059E 16357.71127260 -.00000273 00000-0 -42955-4 0 9999 2 41787 98.1903 54.7719 0030345 354.9836 5.1019 14.63471627 12779 OBJECT F 1 41788U 16059F 16357.08532603 .00000078 00000-0 24401-4 0 9998 2 41788 98.1921 54.1719 0029295 0.1151 0.0073 14.63653109 12687 AlSat 1N 1 41789U 16059G 16357.81730928 .00000015 00000-0 12245-4 0 9994 2 41789 98.1917 54.9482 0027831 351.4401 8.6299 14.63989990 12800 ScatSat 1 41790U 16059H 16357.13655454 .00000025 00000-0 17300-4 0 9999 2 41790 98.0924 48.4305 0010671 338.8043 21.2709 14.50087034 12605 OBJECT J 1 41791U 16059J 16356.77764319 .00000023 00000-0 14686-4 0 9992 2 41791 98.2646 54.0913 0042754 5.4741 354.6918 14.60752974 12648 OBJECT K 1 41792U 16059K 16356.78511685 .00000360 00000-0 77476-4 0 9990 2 41792 098.1945 053.9497 0027548 358.9942 001.1200 14.64133859012645 TY-1 1 41844U 16066D 16357.85977499 -.00000070 00000-0 00000 0 0 9997 2 41844 97.4061 1.7559 0017779 132.3260 313.0449 15.21545859 6527 CAS-2T 1 41845U 16066E 16357.69575407 -.00000067 00000-0 00000 0 0 9999 2 41845 98.7824 3.0731 0367893 52.0935 311.2898 14.37671087 6132 Pegasus-1 1 41846U 16066F 16357.65198317 -.00000067 00000-0 00000 0 0 9997 2 41846 98.7862 2.9921 0368845 53.8345 309.6374 14.36808451 6121 /EX